Regional Weather Roundup
Issued by NWS

Home | Current Version | Previous Version | Graphics & Text | Print | Product List | Glossary On
Versions: 1 2 3 4 5 6 7 8 9 10 11 12 13 14 15 16 17 18 19 20 21 22 23 24 25 26 27 28 29 30 31 32 33 34 35 36 37 38 39 40 41 42 43 44 45 46 47 48 49 50
000
ASUS43 KIND 170509
RWRIN

WEATHER ROUNDUP FOR INDIANA
NATIONAL WEATHER SERVICE INDIANAPOLIS IN
1200 AM EST SUN DEC 17 2017

NOTE: "FAIR" INDICATES FEW OR NO CLOUDS BELOW 12,000 FEET WITH NO
SIGNIFICANT WEATHER AND/OR OBSTRUCTIONS TO VISIBILITY.

* - STATION DOES NOT REPORT WEATHER SUCH AS PRECIPITATION OR FOG.

+ - STATION NOT QUALITY CONTROLLED BY THE NATIONAL WEATHER SERVICE.
    USE DATA WITH CAUTION...ESPECIALLY DEWPOINT AND RELATIVE
    HUMIDITY OBSERVATIONS.

INZ001>003-010>013-019-020-170600-
NORTHWEST INDIANA

CITY           SKY/WX    TMP DP  RH WIND       PRES   REMARKS
GARY /AIRPORT/ CLOUDY    28  26  94 CALM      30.07S
KNOX *+        CLOUDY    32  28  86 CALM      30.08R
LA PORTE +     CLOUDY    26  24  93 CALM      30.08R
MICHIGAN CITY+ CLOUDY    28  27  93 CALM      30.08R
MONTICELLO +   CLOUDY    37  28  70 S5        30.08R WCI  33
RENSSELAER +   CLOUDY    32  23  69 S5        30.08S WCI  27
VALPARAISO     CLOUDY    32  27  81 CALM      30.08R

$$

LMZ046-743>745-170600-
SOUTHERN LAKE MICHIGAN

STATION/POSITION TIME  TEMP    WIND        PRES    WAVE
                       AIR SEA DIR/SP/G            HT
                 (UTC) (F)     (DEG/KT/KT) (MB)    (FT)
BURNS HARBOR     0440   37     170/  4/  6 1018.6R
MICHIGAN CITY    0440   36     130/  3/  5   N/A

$$

INZ004-005-014>016-021>024-170600-
NORTH CENTRAL INDIANA

CITY           SKY/WX    TMP DP  RH WIND       PRES   REMARKS
GOSHEN         CLOUDY    31  25  78 SE5       30.09R WCI  26
LOGANSPORT +   CLOUDY    32  27  80 S6        30.11R WCI  26
PERU/GRISSOM   CLOUDY    33  27  79 S7        30.09R WCI  27
ROCHESTER +    CLOUDY    36  30  80 S5        30.10R WCI  32
SOUTH BEND     CLOUDY    27  25  92 E3        30.09R
WARSAW +       CLOUDY    32  27  80 CALM      30.09R

$$

INZ006>009-017-018-025>027-170600-
NORTHEAST INDIANA

CITY           SKY/WX    TMP DP  RH WIND       PRES   REMARKS
AUBURN +       CLOUDY    30  27  86 E6        30.12R WCI  24
FORT WAYNE     CLOUDY    29  25  85 CALM      30.12R
HUNTINGTON +   CLOUDY    32  27  81 S3        30.11R

$$

INZ028-029-035-036-043>045-051>053-170600-
WEST CENTRAL INDIANA

CITY           SKY/WX    TMP DP  RH WIND       PRES   REMARKS
CRAWFORDSVL +  CLEAR     35  28  75 S8        30.10F WCI  29
GREENCASTLE +  CLEAR     41  28  60 SW6       30.13R
LAFAYETTE      CLOUDY    37  28  70 CALM      30.09R
TERRE HAUTE    CLOUDY    40  28  62 S8        30.13S WCI  34

$$

INZ030>032-037>040-046>048-054>057-064-065-170600-
CENTRAL INDIANA

CITY           SKY/WX    TMP DP  RH WIND       PRES   REMARKS
FRANKFORT +    CLEAR     39  30  70 SW8       30.11S WCI  34
GREENWOOD *+   CLOUDY    36  29  73 S6        30.14S WCI  32
INDIANAPOLIS   PTCLDY    40  28  62 SW10      30.13R WCI  33
-EAGLE CREEK   CLEAR     40  27  59 SW6       30.11S WCI  36
KOKOMO +       CLOUDY    35  27  72 S8        30.11R WCI  29
MARION +       CLOUDY    32  27  79 S8        30.12R WCI  25
MT COMFORT *+  CLEAR     34  30  86 S7        30.12F WCI  28
SHELBYVILLE    CLOUDY    35  25  66 S9        30.14R WCI  28
ZIONSVILLE +   CLEAR     38  28  67 SW9       30.11S WCI  32

$$

INZ033-034-041-042-049-050-058-059-170600-
EAST CENTRAL INDIANA

CITY           SKY/WX    TMP DP  RH WIND       PRES   REMARKS
MUNCIE         CLOUDY    39  27  62 SW7       30.12R WCI  34
RICHMOND +     CLEAR     32  28  86 SW8       30.14S WCI  25

$$

INZ060-061-067>069-081>083-085>088-170600-
SOUTHWEST INDIANA

CITY           SKY/WX    TMP DP  RH WIND       PRES   REMARKS
EVANSVILLE     CLOUDY    41  30  65 S3        30.18R
HUNTINGBURG +  PTCLDY    41  30  65 S7        30.17S
WASHINGTON +   PTCLDY    35  27  72 S6        30.16S WCI  30

$$

INZ062-063-066-070>080-084-089>092-170600-
SOUTH CENTRAL AND SOUTHEAST INDIANA

CITY           SKY/WX    TMP DP  RH WIND       PRES   REMARKS
BEDFORD +      CLOUDY    41  27  56 S6        30.16R
BLOOMINGTON    CLOUDY    43  27  53 SW10      30.15R
MADISON *+     CLOUDY    37  28  70 CALM      30.20S
NORTH VERNON + CLOUDY    36  27  69 S7        30.18R WCI  30
SEYMOUR +      CLOUDY    41  27  56 S5        30.18R

$$




USA.gov is the U.S. government's official web portal to all federal, state and local government web resources and services.